Regional Weather Roundup
Issued by NWS Kansas City/Pleasant Hill, MO

Home | Current Version | Previous Version | Graphics & Text | Print | Product List | Glossary Off
Versions: 1 2 3 4 5 6 7 8 9 10 11 12 13 14 15 16 17 18 19 20 21 22 23 24 25 26 27 28 29 30 31 32 33 34 35 36 37 38 39 40 41 42 43 44 45 46 47 48 49 50

000
ASUS43 KEAX 022010
RWREAX

WEATHER ROUNDUP FOR EASTERN KANSAS AND NORTHWEST MISSOURI
NATIONAL WEATHER SERVICE KANSAS CITY/PLEASANT HILL MO
300 PM CDT MON MAY 02 2016

KSZ040-057-103>105-MOZ028-029-037-043-022100-
...KANSAS CITY METROPOLITAN AREA...

CITY           SKY/WX    TMP DP  RH WIND       PRES   REMARKS
K.C. INTL      CLOUDY    54  47  77 NE3       30.09F
K.C. DOWNTOWN  CLOUDY    55  45  68 CALM      30.09F
LEES SUMMIT    CLOUDY    53  45  74 CALM      30.09F
OLATHE - IXD   CLOUDY    55  45  68 NE7       30.10F
OLATHE - OJC   CLOUDY    53  44  71 N5        30.10S
LAWRENCE       CLOUDY    53  46  77 E7        30.10F

$$

MOZ001>008-011>017-020>025-030>033-038>040-044>046-053-054-022100-
...NORTHERN AND CENTRAL MISSOURI...

CITY           SKY/WX    TMP DP  RH WIND       PRES   REMARKS
ST. JOSEPH     CLOUDY    58  44  60 NE5       30.09F
MOSBY          CLOUDY    54  46  76 W3        30.09F
WARRENSBURG    RAIN      52  46  82 W5        30.09F
WHITEMAN AFB   CLOUDY    52  49  89 NW3       30.08S
CLINTON        CLOUDY    54  45  71 CALM      30.09F
SEDALIA        CLOUDY    54  46  74 NW5       30.09S
WARSAW         NOT AVBL
CHILLICOTHE      N/A     61  43  51 NE8       30.08S
KIRKSVILLE     CLOUDY    54  45  71 NE8       30.07S

$$

MOZ041-047>049-056>058-063>065-088>090-097-022100-
...EASTERN AND SOUTHERN MISSOURI...

CITY           SKY/WX    TMP DP  RH WIND       PRES   REMARKS
ST. LOUIS INTL CLOUDY    56  47  71 N6        30.05F
SPIRIT OF STL  CLOUDY    56  49  77 NW6       30.05S
COLUMBIA       CLOUDY    51  48  89 N3        30.08R FOG
JEFFERSON CITY CLOUDY    54  47  77 N3        30.08R
ROLLA          CLOUDY    54  45  71 W6        30.05S
OSAGE BEACH    CLOUDY    54  39  58 CALM      30.08S
SPRINGFIELD    CLOUDY    53  44  71 NW7       30.08S
BRANSON        CLOUDY    55  46  71 NW6       30.08S
JOPLIN         PTSUNNY   55  45  68 W7        30.11S
WEST PLAINS    CLOUDY    59  44  57 NW9       30.05F

$$

IAZ060-094-KSZ022-034>040-054-083-096-NEZ052-066-093-022100-
...KANSAS...SOUTHEAST NEBRASKA AND IOWA...

CITY           SKY/WX    TMP DP  RH WIND       PRES   REMARKS
TOPEKA         CLOUDY    58  45  62 N8        30.10F
MANHATTAN      CLOUDY    63  40  42 CALM      30.10F
EMPORIA        CLOUDY    60  40  47 NW12G20   30.10F
CHANUTE        CLOUDY    56  44  64 N5        30.11F
WICHITA        PTSUNNY   61  41  47 N8        30.13F
OMAHA          PTSUNNY   64  39  39 VRB3      30.09F
LINCOLN        PTSUNNY   64  36  35 CALM      30.10F
FALLS CITY     CLOUDY    60  46  59 VRB5      30.09F
LAMONI         CLOUDY    59  42  53 NE5       30.07F
DES MOINES     PTSUNNY   61  37  41 VRB7      30.07S

$$




USA.gov is the U.S. government's official web portal to all federal, state and local government web resources and services.